SCP
0 0 0 0 0 0 0 0 0 0 0 0 0 0 0 0 0 0 0 0 0 0 0 0 -0 0 0 0 0 0 0 0
0 0 0 0 0 0 0 0 0 0 0 0 0 0 0 0 0 0 0 0 0 0 0 0 -0 0 0 0 0 0 0 0
0 0 0 0 0 0 0 0 0 0 0 0 0 0 0 0 0 0 0 0 0 0 0 0 -0 -0 0 0 0 0 0 0
0 0 0 0 0 0 0 0 0 0 0 0 0 0 0 0 0 0 0 0 0 0 0 0 -0 0 -0 0 0 0 0 0
0 0 0 0 0 0 0 0 0 0 0 0 0 0 0 0 0 0 0 0 0 0 0 -0 0 -0 0 0 0 0 0 0
0 0 0 0 0 0 0 0 0 0 0 0 0 0 0 0 0 0 0 0 0 0 0 -0 -0 0 0 0 0 0 0 0
0 0 0 0 0 0 0 0 0 0 0 0 0 0 0 0 0 0 0 0 0 0 0 -0 -0 -0 -0 0 0 0 0 0
0 0 0 0 0 0 0 0 0 0 0 0 0 0 0 0 0 0 0 0 0 -0 -0 -0 0 -0 -0 0 0 0 0 0
0 0 0 0 0 0 0 0 0 0 0 0 0 0 0 0 0 0 0 0 0 -0 -0 0 0 -0 -0 0 0 0 0 0
0 0 0 0 0 0 0 0 0 0 0 0 0 0 0 0 0 0 0 0 0 -0 -0 0 0 0 -0 -0 0 0 0 0
0 0 0 0 0 0 0 0 0 0 0 0 0 0 0 0 0 0 0 0 0 -0 -0 0 0 0 -0 -0 0 0 0 0
0 0 0 0 0 0 0 0 0 0 0 0 0 0 0 0 0 0 0 0 0 0 -0 0 0 0 -0 -0 0 0 0 0
0 0 0 0 0 0 0 0 0 0 0 0 0 0 0 0 0 0 0 0 0 -0 0 0 0 0 -0 -0 -0 0 0 0
0 0 0 0 0 0 0 0 0 0 0 0 0 0 0 0 0 0 0 0 0 -0 0 0 0 0 -0 -0 -0 0 0 0
0 0 0 0 0 0 0 0 0 0 0 0 0 0 0 0 0 0 0 0 0 -0 0 0 0 0 0 -0 -0 0 0 0
0 0 0 0 0 0 0 0 0 0 0 0 0 0 0 0 0 0 0 0 0 0 -0 0 0 0 0 -0 -0 -0 0 0
0 0 0 0 0 0 0 0 0 0 0 0 0 0 0 0 0 0 0 0 0 0 -0 -0 0 0 0 -0 -0 -0 -0 0
0 0 0 0 0 0 0 0 0 0 0 0 0 0 0 0 0 0 0 0 0 0 0 -0 0 0 0 0 -0 0 -0 -0
0 0 0 0 0 0 0 0 0 0 0 0 0 0 0 0 0 0 0 0 0 0 0 -0 0 0 0 0 0 0 0 -0
Wind_Speed_500mb
12 16 16 24 36 41 37 39 50 62 70 66 65 60 61 62 64 62 66 68 70 51 44 49 53 57 54 54 54 52 49 45
11 17 14 24 35 39 34 41 53 65 66 65 60 60 58 56 62 61 63 67 61 50 43 45 47 48 53 55 53 55 46 43
12 9 15 28 38 35 34 43 55 59 58 59 59 62 61 60 63 62 63 60 50 47 46 45 47 46 46 47 51 54 46 38
15 9 16 29 35 31 37 46 53 52 55 57 59 58 58 60 63 59 57 52 48 47 45 45 47 45 45 47 54 47 47 39
12 9 17 29 32 31 37 45 48 49 54 55 60 63 61 64 59 55 55 51 49 47 48 48 46 43 41 47 51 41 39 42
7 8 19 29 29 29 36 44 43 47 52 53 59 63 64 62 53 49 51 51 50 50 52 51 50 42 48 52 56 38 37 36
6 11 21 27 24 27 38 42 41 44 49 52 58 63 67 62 53 48 48 49 48 52 53 50 51 46 48 53 50 34 35 33
11 12 20 24 19 27 39 38 38 42 47 52 56 62 66 59 51 47 48 48 50 57 53 51 45 42 50 58 41 34 35 37
12 15 23 22 18 27 36 35 35 41 47 50 52 59 64 57 48 45 43 46 47 52 51 49 43 47 52 49 37 33 36 37
13 17 24 15 16 28 33 32 33 40 45 47 50 57 63 58 52 46 43 45 46 52 49 48 44 50 51 49 43 36 36 38
17 20 20 10 16 27 31 30 34 41 43 43 47 55 61 57 54 52 48 46 50 52 50 46 44 49 53 49 43 38 37 37
18 21 12 8 15 26 29 29 34 39 42 41 44 53 59 55 55 54 53 48 49 52 49 44 47 53 56 48 42 40 38 41
17 14 11 6 16 25 28 27 34 39 40 38 43 52 57 54 53 54 54 51 49 51 51 48 48 57 57 49 43 41 40 42
15 11 10 5 17 24 23 27 33 37 38 36 44 52 56 51 51 52 54 51 51 51 51 50 51 59 59 50 44 41 38 39
17 15 11 6 16 20 20 26 32 37 36 37 45 53 53 47 47 49 51 51 52 52 50 48 50 57 58 50 43 42 41 38
23 17 12 7 12 16 18 24 30 36 32 38 45 50 48 44 44 46 48 50 51 51 49 50 51 53 58 51 46 42 42 43
22 19 13 6 7 10 16 22 28 32 32 38 44 47 45 44 42 43 45 48 49 52 52 51 52 53 53 49 45 44 43 42
18 19 11 5 4 8 14 20 27 29 31 38 43 43 43 42 40 40 43 48 47 51 53 50 51 53 54 50 47 45 44 44
20 21 12 8 1 6 13 19 24 27 32 38 39 41 42 40 39 40 41 44 45 48 50 49 49 51 54 53 50 50 47 48
Wind_Direction_500mb
334 346 353 0 358 351 346 343 345 350 351 354 3 4 2 1 2 358 354 353 352 351 345 345 347 351 349 346 344 340 339 328
324 335 349 353 356 351 348 346 347 350 354 359 3 2 2 2 1 355 352 350 351 355 346 344 346 344 347 350 346 342 345 352
318 323 348 347 354 352 351 347 348 351 357 2 3 1 1 360 356 355 354 354 358 357 352 347 346 345 347 347 346 346 353 17
321 325 340 347 351 355 351 349 348 355 0 5 4 1 0 356 355 355 2 4 4 358 355 350 348 348 348 349 347 351 358 14
309 318 338 347 351 351 346 347 350 359 4 6 5 3 358 354 353 359 5 7 5 2 358 354 351 352 353 351 350 3 12 8
267 313 334 344 347 339 345 347 352 3 6 5 4 3 358 354 355 359 3 5 7 2 0 358 357 358 354 353 355 13 20 19
258 306 331 335 333 338 344 348 356 3 5 4 3 1 358 357 358 1 1 1 1 4 1 358 360 354 354 351 359 18 18 23
243 293 322 327 327 337 345 350 357 3 3 3 1 359 358 360 1 359 -0 0 -0 2 359 2 0 356 351 350 9 18 19 19
248 296 316 317 320 337 347 353 358 0 1 0 358 357 -0 2 2 2 3 1 359 359 1 2 1 358 355 2 21 19 21 16
247 285 308 300 320 340 351 356 359 359 360 358 355 357 0 4 6 6 3 1 360 1 2 3 6 360 6 17 21 20 17 16
251 286 300 281 326 346 354 359 359 360 359 356 354 358 1 4 8 9 5 2 3 5 7 6 7 10 15 18 17 21 15 15
254 288 257 274 338 350 355 0 1 360 359 356 354 359 2 5 9 10 8 6 7 9 12 8 13 17 18 19 19 20 19 16
257 271 223 284 347 353 353 1 1 1 359 357 357 360 3 7 10 12 13 12 13 14 16 19 22 23 18 18 21 20 21 17
249 229 220 307 351 348 353 2 1 1 0 360 359 2 6 7 11 14 15 15 17 17 18 21 28 27 17 19 23 22 20 20
244 228 222 314 346 343 359 359 1 3 2 2 2 4 5 7 12 16 16 17 18 20 21 23 29 28 18 18 25 25 26 22
241 224 219 303 335 344 1 359 3 3 5 5 6 3 6 10 16 17 19 20 19 20 22 26 30 28 20 17 26 28 27 22
230 209 213 279 318 355 359 3 4 5 7 9 7 5 10 13 16 19 20 21 20 21 24 27 30 27 20 20 28 29 28 24
217 196 203 248 302 7 4 8 6 6 10 12 10 11 14 16 15 18 21 21 20 21 25 28 30 30 26 27 26 31 29 26
197 185 197 214 184 13 13 12 6 10 14 17 17 18 18 18 16 19 22 20 21 21 22 28 28 30 29 31 31 33 32 29
Wind_Speed_850mb
12 16 16 24 36 41 37 39 50 62 70 66 65 60 61 62 64 62 66 68 70 51 44 49 53 57 54 54 54 52 49 45
11 17 14 24 35 39 34 41 53 65 66 65 60 60 58 56 62 61 63 67 61 50 43 45 47 48 53 55 53 55 46 43
12 9 15 28 38 35 34 43 55 59 58 59 59 62 61 60 63 62 63 60 50 47 46 45 47 46 46 47 51 54 46 38
15 9 16 29 35 31 37 46 53 52 55 57 59 58 58 60 63 59 57 52 48 47 45 45 47 45 45 47 54 47 47 39
12 9 17 29 32 31 37 45 48 49 54 55 60 63 61 64 59 55 55 51 49 47 48 48 46 43 41 47 51 41 39 42
7 8 19 29 29 29 36 44 43 47 52 53 59 63 64 62 53 49 51 51 50 50 52 51 50 42 48 52 56 38 37 36
6 11 21 27 24 27 38 42 41 44 49 52 58 63 67 62 53 48 48 49 48 52 53 50 51 46 48 53 50 34 35 33
11 12 20 24 19 27 39 38 38 42 47 52 56 62 66 59 51 47 48 48 50 57 53 51 45 42 50 58 41 34 35 37
12 15 23 22 18 27 36 35 35 41 47 50 52 59 64 57 48 45 43 46 47 52 51 49 43 47 52 49 37 33 36 37
13 17 24 15 16 28 33 32 33 40 45 47 50 57 63 58 52 46 43 45 46 52 49 48 44 50 51 49 43 36 36 38
17 20 20 10 16 27 31 30 34 41 43 43 47 55 61 57 54 52 48 46 50 52 50 46 44 49 53 49 43 38 37 37
18 21 12 8 15 26 29 29 34 39 42 41 44 53 59 55 55 54 53 48 49 52 49 44 47 53 56 48 42 40 38 41
17 14 11 6 16 25 28 27 34 39 40 38 43 52 57 54 53 54 54 51 49 51 51 48 48 57 57 49 43 41 40 42
15 11 10 5 17 24 23 27 33 37 38 36 44 52 56 51 51 52 54 51 51 51 51 50 51 59 59 50 44 41 38 39
17 15 11 6 16 20 20 26 32 37 36 37 45 53 53 47 47 49 51 51 52 52 50 48 50 57 58 50 43 42 41 38
23 17 12 7 12 16 18 24 30 36 32 38 45 50 48 44 44 46 48 50 51 51 49 50 51 53 58 51 46 42 42 43
22 19 13 6 7 10 16 22 28 32 32 38 44 47 45 44 42 43 45 48 49 52 52 51 52 53 53 49 45 44 43 42
18 19 11 5 4 8 14 20 27 29 31 38 43 43 43 42 40 40 43 48 47 51 53 50 51 53 54 50 47 45 44 44
20 21 12 8 1 6 13 19 24 27 32 38 39 41 42 40 39 40 41 44 45 48 50 49 49 51 54 53 50 50 47 48
Wind_Direction_850mb
334 346 353 0 358 351 346 343 345 350 351 354 3 4 2 1 2 358 354 353 352 351 345 345 347 351 349 346 344 340 339 328
324 335 349 353 356 351 348 346 347 350 354 359 3 2 2 2 1 355 352 350 351 355 346 344 346 344 347 350 346 342 345 352
318 323 348 347 354 352 351 347 348 351 357 2 3 1 1 360 356 355 354 354 358 357 352 347 346 345 347 347 346 346 353 17
321 325 340 347 351 355 351 349 348 355 0 5 4 1 0 356 355 355 2 4 4 358 355 350 348 348 348 349 347 351 358 14
309 318 338 347 351 351 346 347 350 359 4 6 5 3 358 354 353 359 5 7 5 2 358 354 351 352 353 351 350 3 12 8
267 313 334 344 347 339 345 347 352 3 6 5 4 3 358 354 355 359 3 5 7 2 0 358 357 358 354 353 355 13 20 19
258 306 331 335 333 338 344 348 356 3 5 4 3 1 358 357 358 1 1 1 1 4 1 358 360 354 354 351 359 18 18 23
243 293 322 327 327 337 345 350 357 3 3 3 1 359 358 360 1 359 -0 0 -0 2 359 2 0 356 351 350 9 18 19 19
248 296 316 317 320 337 347 353 358 0 1 0 358 357 -0 2 2 2 3 1 359 359 1 2 1 358 355 2 21 19 21 16
247 285 308 300 320 340 351 356 359 359 360 358 355 357 0 4 6 6 3 1 360 1 2 3 6 360 6 17 21 20 17 16
251 286 300 281 326 346 354 359 359 360 359 356 354 358 1 4 8 9 5 2 3 5 7 6 7 10 15 18 17 21 15 15
254 288 257 274 338 350 355 0 1 360 359 356 354 359 2 5 9 10 8 6 7 9 12 8 13 17 18 19 19 20 19 16
257 271 223 284 347 353 353 1 1 1 359 357 357 360 3 7 10 12 13 12 13 14 16 19 22 23 18 18 21 20 21 17
249 229 220 307 351 348 353 2 1 1 0 360 359 2 6 7 11 14 15 15 17 17 18 21 28 27 17 19 23 22 20 20
244 228 222 314 346 343 359 359 1 3 2 2 2 4 5 7 12 16 16 17 18 20 21 23 29 28 18 18 25 25 26 22
241 224 219 303 335 344 1 359 3 3 5 5 6 3 6 10 16 17 19 20 19 20 22 26 30 28 20 17 26 28 27 22
230 209 213 279 318 355 359 3 4 5 7 9 7 5 10 13 16 19 20 21 20 21 24 27 30 27 20 20 28 29 28 24
217 196 203 248 302 7 4 8 6 6 10 12 10 11 14 16 15 18 21 21 20 21 25 28 30 30 26 27 26 31 29 26
197 185 197 214 184 13 13 12 6 10 14 17 17 18 18 18 16 19 22 20 21 21 22 28 28 30 29 31 31 33 32 29